{"data":{"norad_id":54807,"intl_designator":"2022-175BB","name":"STARLINK-5410","alt_names":[],"object_type":"PAYLOAD","status":"ACTIVE","operator":null,"country":"US","launch_date":"2022-12-17","launch_site_code":"AFETR","launch_vehicle":null,"mission":null,"orbit_class":"UNKNOWN","rcs_meters":null,"size_class":null,"mass_kg":null,"dimensions":null,"purposes":["comms"],"wikipedia_slug":null,"has_3d_model":false,"image_url":null,"decayed_at":null,"tle_current":{"epoch":"2026-09-20T08:40:50.738304Z","epoch_age_seconds":105370,"freshness":"FRESH","line1":"1 54807U 22175BB  26263.36169836  .00000833  00000+0  35786-4 0  9998","line2":"2 54807  53.1594 220.1425 0001213  83.5496 276.5644 15.34392147209724","mean_motion":15.34392147,"eccentricity":0.0001213,"inclination_deg":53.1594,"raan_deg":220.1425,"arg_perigee_deg":83.5496,"mean_anomaly_deg":276.5644,"bstar":3.5786e-5,"rev_number":20972,"period_min":93.848238392998,"perigee_km":461.89678432521,"apogee_km":463.55637782998,"semimajor_km":6840.8635810776,"source":"CELESTRAK","updated_at":"2026-09-21T09:00:33.130749Z"}}}